Regional Weather Roundup
Issued by NWS Goodland, KS

Home | Current Version | Previous Version | Text Only | Print | Product List | Glossary On
Versions: 1 2 3 4 5 6 7 8 9 10 11 12 13 14 15 16 17 18 19 20 21 22 23 24 25 26 27 28 29 30 31 32 33 34 35 36 37 38 39 40 41 42 43 44 45 46 47 48 49 50
000
ASUS43 KGLD 190408
RWRGLD

GOODLAND FORECAST AREA HOURLY WEATHER ROUNDUP
NATIONAL WEATHER SERVICE GOODLAND KS
1000 PM MDT WED OCT 18 2017

...OFFICIAL OBSERVATIONS...

CITY           SKY/WX    TMP DP  RH WIND       PRES   REMARKS
GOODLAND KS    CLEAR     46  34  62 E8        30.11F
HILL CITY KS   CLEAR     56  38  50 N9        30.09S
IMPERIAL NEB   CLEAR     46  32  58 SE6       30.10F
MCCOOK NEB     CLEAR     49  35  58 E5        30.10S
AKRON CO       CLEAR     51  27  39 SE13      30.14S
BURLINGTON CO  CLEAR     49  31  49 E10       30.14S
LIMON CO       CLOUDY    41  25  53 CALM      30.19R
$$

...UNOFFICIAL OBSERVATIONS...

CITY           SKY/WX    TMP DP  RH WIND       PRES   REMARKS
LENORA KS        N/A     51  32  48 MISG        N/A
NORTON KS      CLEAR     48  30  49 CALM      30.08
SHARON SPRINGS   N/A     52  34  51 E5          N/A
TRENTON NEB      N/A     51  32  48 CALM        N/A
YUMA CO        FAIR      43  30  61 S6        30.12F
$$




USA.gov is the U.S. government's official web portal to all federal, state and local government web resources and services.